[[{"header":{"parameterUnit":"m.s-1","parameterCategory":1,"la1":30.2991,"la2":30.254,"lo1":-89.0895,"lo2":-89.0444,"dy":0.0017,"dx":0.0017,"nx":28,"ny":28,"refTime":"2024-08-02T21:00:00:Z","depth":0,"parameterNumber":2,"parameterNumberName":"U-component_of_WINDS"},"data":[0,0,0,0,0,0,0,0,0,0,0,0,0,0,0,0,0,0,0,0,0,0,0,0,0,0,0,0,0,0,0,0,0,0,0,0,0,0,0,0,0,0,0,0,0,0,0,0,0,0,0,0,0,0,0,0,0,0,1.6402,1.6403,0,1.645,1.6451,1.6451,1.644,1.6439,1.6438,1.6437,1.6491,1.6493,1.6496,0,0,0,0,0,0,0,0,0,0,0,0,0,1.6304,1.6306,1.6402,1.6403,1.6403,1.645,1.6451,1.6452,1.644,1.6439,1.6438,1.6437,1.649,1.6493,1.6496,0,0,0,0,0,0,0,0,0,0,0,0,0,1.6349,1.6306,1.6402,1.6403,1.6404,1.645,1.6451,1.6452,1.644,1.6439,1.6438,1.6436,1.6489,1.6493,1.6496,1.6546,0,0,1.6507,1.6508,0,0,0,0,0,0,0,0,1.6346,1.6353,1.6402,1.6403,1.6404,1.6438,1.6436,1.6483,1.6441,1.6427,1.6437,1.6436,1.6475,1.6479,1.6492,1.6548,1.655,1.6507,1.6509,1.6511,1.6512,0,0,0,0,0,0,0,1.6343,1.635,1.6421,1.6403,1.6404,1.6403,1.6407,1.6445,1.6458,1.6428,1.6427,1.6433,1.6475,1.6488,1.6493,1.6551,1.6507,1.651,1.6512,1.6514,1.6651,1.6652,0,0,0,0,0,0,1.6339,1.6348,1.642,1.6423,1.6371,1.6405,1.6411,1.6428,1.6458,1.6461,1.6434,1.6432,1.6483,1.6489,1.6495,1.6554,1.6511,1.6514,1.6516,1.6649,1.6651,1.6653,0,0,0,0,0,0,1.6337,1.6346,1.6418,1.6385,1.6394,1.6409,1.6428,1.643,1.6443,1.6462,1.6465,1.6445,1.6482,1.649,1.6533,1.6556,1.6515,1.6519,1.6647,1.665,1.6652,1.6674,0,0,0,0,0,0,1.6334,1.6345,1.6363,1.6386,1.6396,1.6454,1.643,1.6432,1.6449,1.6447,1.6473,1.6476,1.6482,1.6528,1.6536,1.656,1.6521,1.6645,1.6648,1.6651,1.6671,1.6677,1.6682,0,0,0,0,0,1.6331,1.6368,1.6364,1.6373,1.6419,1.6455,1.6461,1.6466,1.6451,1.647,1.6482,1.6475,1.6552,1.6532,1.6542,1.6567,1.6644,1.6648,1.6651,1.6669,1.6676,1.6681,0,0,0,0,0,0,1.6349,1.6371,1.6367,1.6412,1.6432,1.6453,1.6477,1.6473,1.6498,1.6495,1.6501,1.6507,1.6551,1.6563,1.6541,1.6616,1.6596,1.6602,1.6606,1.6613,1.6618,1.6614,1.6524,0,0,0,0,0,1.6358,1.6385,1.6403,1.6442,1.6452,1.6463,1.6479,1.648,1.6502,1.651,1.6525,1.6547,1.6576,1.6595,1.6623,1.6673,1.6679,1.6695,1.67,1.6704,1.6709,1.6736,1.6744,1.6664,1.6664,1.6664,0,0,1.6378,1.6393,1.641,1.6446,1.6461,1.649,1.647,1.6501,1.6523,1.6515,1.6556,1.6568,1.6593,1.664,1.6661,1.6652,1.6732,1.6709,1.6712,1.6715,1.6741,1.6748,1.6755,1.6667,1.6666,1.6666,0,0,1.6429,1.6443,1.6476,1.6492,1.6514,1.6521,1.653,1.6552,1.6559,1.66,1.6595,1.6621,1.6671,1.6689,1.6704,1.6761,1.6756,1.677,1.6797,1.6823,1.683,1.6835,1.6855,1.6863,1.6775,1.6775,1.6775,0,1.6451,1.6492,1.6494,1.6526,1.6542,1.6535,1.6569,1.6585,1.6616,1.6628,1.6617,1.6678,1.6695,1.6745,1.6759,1.6772,1.6782,1.6767,1.6828,1.6834,1.6839,1.6859,1.6866,1.6776,1.6776,1.6776,1.6776,0,1.6518,1.6547,1.6572,1.6601,1.662,1.6653,1.6661,1.668,1.668,1.6688,1.673,1.6749,1.678,1.6792,1.6793,1.6843,1.6836,1.6827,1.6806,1.6848,1.6866,1.6874,1.6778,1.6778,1.6777,1.6777,0,0,1.6582,1.6611,1.662,1.6633,1.6657,1.6681,1.6714,1.6743,1.6759,1.6781,1.6809,1.6851,1.6842,1.6859,1.6862,1.6885,1.6929,1.6873,1.6873,1.6882,1.6985,1.6992,1.7001,1.6926,1.6927,1.6928,1.6983,0,1.6634,1.6691,1.6694,1.6746,1.6773,1.6766,1.6795,1.6814,1.6823,1.6848,1.6858,1.6888,1.6873,1.6884,1.6906,1.6919,1.695,1.6915,1.6953,1.6954,1.6947,1.701,1.7018,1.7069,1.699,1.6991,1.6992,0,1.6703,1.6726,1.678,1.68,1.6812,1.6837,1.6864,1.6888,1.691,1.6914,1.6934,1.6933,1.6968,1.6946,1.6994,1.697,1.6986,1.6994,1.6997,1.7,1.6976,1.7016,1.7085,1.7092,1.7004,1.7003,1.7002,0,1.6744,1.6788,1.6826,1.6838,1.6862,1.6881,1.6892,1.6912,1.6929,1.6953,1.6964,1.6992,1.7008,1.703,1.7037,1.7021,1.7085,1.7064,1.7091,1.7091,1.7105,1.7104,1.7177,1.7115,1.7115,1.7115,1.7115,0,1.6803,1.6836,1.6845,1.6868,1.6906,1.6909,1.6946,1.6957,1.6974,1.7,1.6997,1.7022,1.703,1.7056,1.7062,1.7101,1.7108,1.7114,1.7115,1.7114,1.7113,1.7124,1.7121,1.7117,1.7117,1.7116,1.7116,0,1.6855,1.6862,1.6903,1.6922,1.6928,1.6955,1.6972,1.6995,1.7003,1.7036,1.7044,1.7058,1.7088,1.7097,1.7135,1.7139,1.7184,1.7183,1.7177,1.7177,1.7203,1.72,1.7286,1.7297,1.7228,1.7228,1.7229,0,1.6891,1.6916,1.6939,1.6955,1.6967,1.6994,1.7011,1.7016,1.7034,1.706,1.708,1.711,1.7134,1.7184,1.7197,1.7226,1.7225,1.7253,1.7229,1.7227,1.7225,1.7223,1.7225,1.7257,1.7258,1.7259,1.7259,0,1.6955,1.6958,1.6982,1.7007,1.7027,1.7048,1.7068,1.7082,1.709,1.7111,1.7141,1.716,1.7197,1.7227,1.7256,1.7269,1.7266,1.7266,1.7274,1.7273,1.7268,1.7271,1.7189,1.7264,1.7264,1.7263,1.7263,1.7263,1.7001,1.7023,1.7042,1.7069,1.7084,1.7102,1.7125,1.7135,1.716,1.719,1.7192,1.7225,1.7246,1.7284,1.7298,1.7325,1.7317,1.7328,1.7331,1.7334,1.7335,1.7264,1.7331,1.733,1.733,1.733,1.733,0,1.7064,1.7076,1.7101,1.7128,1.715,1.7143,1.7165,1.7184,1.7212,1.7232,1.7255,1.729,1.7319,1.7335,1.7364,1.7382,1.7381,1.739,1.7388,1.7391,1.7341,1.7331,1.739,1.739,1.739,1.739,1.739,1.739,1.71,1.7137,1.7141,1.7186,1.7198,1.7229,1.7242,1.7259,1.7275,1.7313,1.7337,1.7346,1.7364,1.7395,1.7421,1.7425,1.7436,1.7445,1.7448,1.7401,1.7395,1.7389,1.738,1.7447,1.7447,1.7495,1.7496,1.7496]},{"header":{"parameterUnit":"m.s-1","parameterCategory":1,"la1":30.2991,"la2":30.254,"lo1":-89.0895,"lo2":-89.0444,"dy":0.0017,"dx":0.0017,"nx":28,"ny":28,"refTime":"2024-08-02T21:00:00:Z","depth":0,"parameterNumber":3,"parameterNumberName":"V-component_of_WINDS"},"data":[0,0,0,0,0,0,0,0,0,0,0,0,0,0,0,0,0,0,0,0,0,0,0,0,0,0,0,0,0,0,0,0,0,0,0,0,0,0,0,0,0,0,0,0,0,0,0,0,0,0,0,0,0,0,0,0,0,0,4.0625,4.0626,0,4.0667,4.0667,4.0668,4.0663,4.0663,4.0662,4.0661,4.07,4.0702,4.0704,0,0,0,0,0,0,0,0,0,0,0,0,0,4.0535,4.0536,4.0625,4.0626,4.0626,4.0667,4.0667,4.0668,4.0663,4.0663,4.0662,4.0661,4.07,4.0702,4.0704,0,0,0,0,0,0,0,0,0,0,0,0,0,4.0575,4.0537,4.0625,4.0629,4.063,4.0667,4.0667,4.0668,4.0663,4.0663,4.0662,4.0661,4.0699,4.0702,4.0704,4.0739,0,0,4.0711,4.0713,0,0,0,0,0,0,0,0,4.0572,4.0578,4.0628,4.0629,4.063,4.0659,4.065,4.0692,4.0664,4.0651,4.0661,4.066,4.0687,4.069,4.07,4.0741,4.0742,4.0712,4.0713,4.0714,4.0715,0,0,0,0,0,0,0,4.057,4.0576,4.0642,4.0628,4.063,4.0626,4.0631,4.0658,4.0674,4.0652,4.0651,4.0657,4.0687,4.0698,4.0701,4.0743,4.0712,4.0714,4.0715,4.0716,4.0807,4.0808,0,0,0,0,0,0,4.0567,4.0574,4.064,4.0643,4.0598,4.0629,4.0634,4.065,4.0673,4.0676,4.0657,4.0656,4.0694,4.0698,4.0703,4.0741,4.0714,4.0717,4.0718,4.0806,4.0808,4.0809,0,0,0,0,0,0,4.0565,4.0573,4.0639,4.0608,4.0616,4.0631,4.065,4.0652,4.0662,4.0678,4.068,4.0666,4.0694,4.0699,4.0729,4.0742,4.0718,4.072,4.0805,4.0807,4.0808,4.082,0,0,0,0,0,0,4.0562,4.0572,4.0588,4.0609,4.0618,4.0666,4.0651,4.0653,4.0667,4.0666,4.0686,4.0689,4.0693,4.0725,4.0731,4.0745,4.0722,4.0804,4.0806,4.0808,4.0819,4.0822,4.0825,0,0,0,0,0,4.0559,4.059,4.0588,4.0596,4.0638,4.0667,4.0672,4.0678,4.0668,4.0682,4.0691,4.0688,4.074,4.0728,4.0735,4.075,4.0803,4.0806,4.0808,4.0817,4.0821,4.0825,0,0,0,0,0,0,4.057,4.0593,4.0592,4.0631,4.0647,4.0666,4.0685,4.0683,4.0702,4.07,4.0705,4.0709,4.0738,4.0747,4.0734,4.0782,4.077,4.0774,4.0775,4.0779,4.0782,4.0778,4.0724,0,0,0,0,0,4.0577,4.0601,4.0619,4.0651,4.0659,4.067,4.0683,4.0686,4.0703,4.0709,4.0721,4.0736,4.0755,4.0768,4.0787,4.082,4.0822,4.0833,4.0836,4.0839,4.0841,4.0855,4.0859,4.0816,4.0816,4.0816,0,0,4.0592,4.0607,4.0622,4.0653,4.0666,4.0688,4.0676,4.0701,4.0716,4.0713,4.0741,4.0749,4.0766,4.0796,4.081,4.0805,4.0853,4.0841,4.0843,4.0844,4.0857,4.0861,4.0865,4.0817,4.0817,4.0817,0,0,4.0629,4.0644,4.0671,4.0683,4.0702,4.0709,4.0715,4.0734,4.0739,4.0768,4.0764,4.0781,4.0816,4.0826,4.0836,4.0871,4.0868,4.0877,4.0893,4.0906,4.0909,4.0912,4.0921,4.0925,4.088,4.088,4.088,0,4.0644,4.0678,4.0684,4.0707,4.0719,4.0717,4.0742,4.0753,4.0778,4.0785,4.0778,4.0818,4.083,4.086,4.0868,4.0878,4.0882,4.0875,4.0909,4.0912,4.0914,4.0923,4.0927,4.0881,4.0881,4.0881,4.0881,0,4.0693,4.0716,4.0735,4.0758,4.0772,4.0796,4.0803,4.0816,4.0816,4.0822,4.0848,4.0861,4.0881,4.0888,4.089,4.0918,4.0913,4.0908,4.0895,4.0919,4.0927,4.0931,4.0882,4.0882,4.0882,4.0881,0,0,4.074,4.0763,4.077,4.0777,4.0797,4.0813,4.0835,4.0854,4.0864,4.0879,4.0895,4.0922,4.0916,4.0927,4.0929,4.0941,4.0963,4.0933,4.0934,4.0936,4.099,4.0993,4.0997,4.0961,4.0962,4.0962,4.0988,0,4.0776,4.0816,4.082,4.0854,4.0873,4.0869,4.0887,4.0899,4.0904,4.0919,4.0925,4.0942,4.0935,4.0941,4.0952,4.0958,4.0974,4.0956,4.0973,4.0974,4.0967,4.1002,4.1006,4.103,4.0992,4.0992,4.0993,0,4.0825,4.084,4.0876,4.0888,4.0896,4.0913,4.0928,4.0943,4.0955,4.0958,4.0968,4.0967,4.0986,4.0974,4.0998,4.0986,4.0993,4.0996,4.0997,4.0998,4.0984,4.1001,4.1038,4.1041,4.0998,4.0998,4.0998,0,4.085,4.0881,4.0905,4.0912,4.0928,4.0939,4.0946,4.0957,4.0967,4.0979,4.0985,4.1,4.1008,4.1018,4.102,4.1011,4.1043,4.1031,4.1043,4.1043,4.1049,4.1048,4.1085,4.1057,4.1057,4.1057,4.1057,0,4.0889,4.091,4.0916,4.093,4.0952,4.0955,4.0977,4.0983,4.0992,4.1005,4.1003,4.1016,4.1019,4.1031,4.1033,4.105,4.1054,4.1055,4.1055,4.1054,4.1054,4.1058,4.1055,4.1058,4.1057,4.1057,4.1057,0,4.0921,4.0926,4.0952,4.0963,4.0967,4.0982,4.0991,4.1004,4.1008,4.1025,4.1029,4.1035,4.1048,4.1052,4.1069,4.1069,4.1089,4.1089,4.1085,4.1085,4.1095,4.1093,4.1134,4.1138,4.1109,4.1109,4.111,0,4.0944,4.096,4.0973,4.0981,4.0988,4.1004,4.1013,4.1015,4.1024,4.1037,4.1047,4.106,4.1072,4.1093,4.1098,4.111,4.1108,4.1121,4.111,4.1107,4.1105,4.1103,4.1103,4.1123,4.1124,4.1124,4.1124,0,4.0983,4.0984,4.0998,4.1011,4.1022,4.1033,4.1043,4.105,4.1053,4.1063,4.1077,4.1086,4.1102,4.1114,4.1126,4.113,4.1127,4.1128,4.113,4.1129,4.1125,4.1125,4.1089,4.1127,4.1126,4.1126,4.1126,4.1126,4.1009,4.1021,4.1031,4.1045,4.1053,4.1062,4.1073,4.1077,4.1089,4.1102,4.1103,4.1117,4.1125,4.1139,4.1145,4.1155,4.115,4.1155,4.1156,4.1157,4.1156,4.1125,4.1157,4.1157,4.1157,4.1157,4.1157,0,4.1045,4.1051,4.1064,4.1077,4.1087,4.1083,4.1093,4.1102,4.1115,4.1123,4.1133,4.1147,4.1158,4.1163,4.1173,4.118,4.1178,4.1182,4.1181,4.1181,4.1161,4.1156,4.1183,4.1183,4.1183,4.1183,4.1183,4.1183,4.1065,4.1084,4.1086,4.1107,4.1112,4.1126,4.1132,4.1138,4.1144,4.116,4.1169,4.1173,4.1178,4.1188,4.1198,4.1198,4.1201,4.1206,4.1206,4.1186,4.1183,4.1181,4.1176,4.1207,4.1207,4.1225,4.1225,4.1225]}]]